Starlink 11593

operational
NORAD ID: 63318 Int'l Des: 2025-057 Owner: SPXS Country: US Constellation: starlink
LEOCIRCULAR

关于 Starlink 11593

正在加载描述...

实时位置

正在加载3D地球...

即将过境

高度历史

Altitude vs Time

uPlot chart will show altitude changes over time

两行轨道根数

1 63318U 25057M 25305.46282599 .00174056 00000-0 13298-2 0 9998
2 63318 43.0004 317.1903 0001219 289.9806 70.0930 15.70874632 37049
Epoch: Nov 1, 2025 • Age: 25 hours

当前状态

高度 356.7 km
速度 7.70 km/s
星下点 29.90°N, 130.2°W
发射日期 Mar 18, 2025
运行时间 0.6 years
类型 internet

技术详情

分类 Payload
质量 960.00 kg
干质量 910.00 kg
总质量 960.00 kg
长度 0.30 m
直径 4.10 m
跨度 29.00 m
形状 Box + pan
制造商 SPXS
平台类型 Starlink V2MD
阶段状态 In Orbit
所有者/国家 SPXS/US

大型星座

Loading constellations...